Flag for Canada Weather past 2 weeks in Happy Valley-Goose Bay, Newfoundland and Labrador, Canada

Now
43 °F

Broken clouds.


Feels Like: 36 °F
Forecast: 13 / 34 °F
Wind: 14 mph from West

Location: Goose


UV Index: 0 (Low)

Visibility: 15 mi


Pressure: 30.20 "Hg

Humidity: 39%

Dew point: 19 °F

Location of Happy Valley-Goose BayLocation

Historic Weather in Happy Valley-Goose Bay

°F

Happy Valley-Goose Bay temperature yesterday

Maximum temperature yesterday: 27 °F (at 5:00 PM)
Minimum temperature yesterday: 10 °F (at 4:00 AM)
Average temperature yesterday: 18 °F

Past Weeks' High & Low Weather Summary

 TemperatureHumidityPressure
High54 °F (Apr 15, 1:00 PM)81% (Apr 15, 6:00 AM)30.61 "Hg (Apr 15, 6:00 AM)
Low7 °F (Apr 10, 7:00 AM)28% (Apr 17, 5:00 PM)28.95 "Hg (Apr 9, 2:00 PM)
Average29 °F55%29.86 "Hg
* Reported Apr 3 5:00 PM — Apr 18 5:00 PM, Happy Valley-Goose Bay, Weather by CustomWeather, © 2014

Note: Actual official high and low records may vary slightly from our data, if they occured in-between our weather recording intervals... More about our weather records

Advertising

Historic Weather Conditions — Data for Previous 24 hours

 ConditionsComfort  
Time TempWeatherWind HumidityBarometerVisibility
5:00 PM
Apr 18
43 °FPartly sunny.28 mph39%30.23 "Hg15 mi
4:00 PM41 °FPartly sunny.22 mph39%30.25 "Hg15 mi
3:00 PM41 °FPartly sunny.22 mph36%30.28 "Hg15 mi
2:00 PM39 °FPartly sunny.25 mph33%30.31 "Hg15 mi
1:00 PM37 °FPartly sunny.20 mph33%30.35 "Hg15 mi
12:00 PM36 °FOvercast.23 mph35%30.40 "Hg15 mi
11:00 AM32 °FMore clouds than sun.22 mph37%30.43 "Hg15 mi
10:00 AM30 °FPartly sunny.28 mph40%30.46 "Hg15 mi
9:00 AM28 °FPassing clouds.18 mph40%30.48 "Hg15 mi
8:00 AM23 °FSunny.2 mph58%30.50 "Hg15 mi
7:00 AM19 °FClear.3 mph45%30.53 "Hg15 mi
6:00 AM18 °FClear.12 mph49%30.54 "Hg15 mi
5:00 AM19 °FClear.14 mph45%30.54 "Hg15 mi
4:00 AM21 °FClear.9 mph42%30.55 "Hg15 mi
3:00 AM21 °FClear.16 mph42%30.55 "Hg15 mi
2:00 AM21 °FClear.15 mph42%30.56 "Hg15 mi
1:00 AM21 °FClear.17 mph38%30.58 "Hg15 mi
12:00 AM21 °FClear.14 mph38%30.58 "Hg15 mi
11:00 PM
Apr 17
19 °FClear.12 mph38%30.60 "Hg15 mi
10:00 PM23 °FClear.20 mph36%30.61 "Hg15 mi
9:00 PM23 °FSunny.13 mph36%30.61 "Hg15 mi
8:00 PM25 °FSunny.13 mph30%30.60 "Hg15 mi
7:00 PM25 °FSunny.22 mph30%30.59 "Hg15 mi
6:00 PM27 °FSunny.24 mph28%30.57 "Hg15 mi
Weather by CustomWeather, © 2014

See weather overview